Tracking 35331 objects as of 14-Sep-2026
HD Live streaming from Space Station
objects crossing your sky now

ARIANE 42L R/B

Track ARIANE 42L R/B now!
10-day predictions


NORAD ID: 22655
Int'l Code: 1993-031C
Launch date: May 12, 1993
Source: France (FR)
Launch site: FRENCH GUIANA (FRGUI)

Note: This is a ROCKET BODY
Your satellite tracking list
Your tracking list is empty




NASA's NSSDC Master Catalog

Two Line Element Set (TLE):
1 22655U 93031C   26257.12146689  .00003543  00000-0  11318-2 0  9996
2 22655   4.8326 232.3469 6654499  85.5641 341.9199  3.09027425318893
Source of the keplerian elements: AFSPC